STARLINK-4294, 53176

Orbit data source: Space-Track

STARLINK-4294, 53176 is a payload satellite owned by SpaceX/Seattle (US) in LEO that was launched on Sun, 17 Jul 2022 UTC via an FALCON 9 launch vehicle from the Air Force Eastern Test Range (AFETR). Payload-class satellites include a variety of spacecraft equipped with specific instruments for various scientific and technological missions. These include communications satellites like Starlink; space stations such as the ISS; scientific satellites like the Hubble; Earth observation satellites from companies like Planet Labs, Umbra, and HawkEye 360; GPS; miniature CubeSats for education and research; and military/defense satellites.

Loading next visibility...
Identifier
53176, 2022-083AW
Orbit
LEO
Country
Flag of USUS
Related business
Manufacturer
SpaceX/Seattle
Mission
Operational Commercial Communications
Bus & Motor
STARLINK, Unknown motor
Mass
297 kg wet, ~275 kg dry
Launch date (UTC)
2022-07-17 (4 years ago)
Launch vehicle
FALCON 9
Launch site
Air Force Eastern Test Range (AFETR)
Object type
Payload
Rocket body
Debris
Shape & HBR
Box + 1 Pan, 10.1 m
Radar Cross Section
13.562 m², Large (>1 m²)

Expand to show TLE details & history
Last TLE update: 2 days ago

TLE from 2 days ago
0 STARLINK-4294
1 53176U 22083AW  26170.96817605 -.00100162  00000-0 -62753-2 0  9992
2 53176  53.1598  49.7755 0001448 126.9282 233.1842 15.09348356217006
Epoch: 2026-06-19T23:14Z
TLE epoch observation values (Epoch: 2026-06-19T23:14:10.410Z)
Latitude
-0.00007°
Longitude
153.04253°
Altitude
539.682 km
Speed
7.593 km/s
True Right ascension
03h 19m 06s
True Declination
0° 00' 00"
Sunlit
Object was in daylight at epoch
Visualization orbit readout
Latitude
Unknown
Longitude
Unknown
Altitude
Unknown
Speed
Unknown
Apparent Right ascension
Unknown
Apparent Declination
Unknown
Sunlit
N/A
Visualization observer readout
Local Sidereal Time
21:25:59
Azimuth
Unknown
Elevation
Unknown
Doppler factor
Unknown
Orbital elements
Apogee altitude
539.446 km
Perigee altitude
537.443 km
Semi-major axis
6,916.581 km
Eccentricity
0.00014
Inclination
53.1598°
RAAN
49.7755°
Arg. of periapsis
126.9282°
True anomaly
233.17092°
Mean anomaly
233.1842°
Eccentric anomaly
233.17756°
Mean motion
3.77317 °/min
Orbital period
95.41 mins
BSTAR
-0.0062753
Loading maneuver chart data...
Computing Atmospheric mass density...
Loading historical data...
Loading historical data...
Loading historical data...
Loading historical data...
Loading historical data...
Loading historical data...
Loading historical data...

Documentation

Showing up to 5 results
|